Regional Weather Roundup
Issued by NWS

Home | Current Version | Previous Version | Graphics & Text | Print | Product List | Glossary On
Versions: 1 2 3 4 5 6 7 8 9 10 11 12 13 14 15 16 17 18 19 20 21 22 23 24 25 26 27 28 29 30 31 32 33 34 35 36 37 38 39 40 41 42 43 44 45 46 47 48 49 50
000
ASUS43 KIND 171709
RWRIN

WEATHER ROUNDUP FOR INDIANA
NATIONAL WEATHER SERVICE INDIANAPOLIS IN
100 PM EDT WED SEP 17 2014

NOTE: "FAIR" INDICATES FEW OR NO CLOUDS BELOW 12,000 FEET WITH NO
SIGNIFICANT WEATHER AND/OR OBSTRUCTIONS TO VISIBILITY.

* - STATION DOES NOT REPORT WEATHER SUCH AS PRECIPITATION OR FOG.

+ - STATION NOT QUALITY CONTROLLED BY THE NATIONAL WEATHER SERVICE.
    USE DATA WITH CAUTION...ESPECIALLY DEWPOINT AND RELATIVE
    HUMIDITY OBSERVATIONS.

INZ001>003-010>013-019-020-171800-
NORTHWEST INDIANA

CITY           SKY/WX    TMP DP  RH WIND       PRES   REMARKS
GARY /AIRPORT/ MOSUNNY   68  45  42 CALM      30.04F
KNOX *+        PTSUNNY   64  45  50 CALM      30.03S
MICHIGAN CITY+ PTSUNNY   63  45  51 NW5       30.04S
RENSSELAER +   MOSUNNY   64  46  52 SW3       30.04F
VALPARAISO     PTSUNNY   65  45  48 W5        30.04F

$$

LMZ046-743>745-171800-
SOUTHERN LAKE MICHIGAN

STATION/POSITION TIME  TEMP WIND        PRES
                       AIR  DIR/SP/G
                 (UTC) (F)  (DEG/KT/KT) (MB)
MICHIGAN CITY    1700   62  260/  8/  9   N/A

$$

INZ004-005-014>016-021>024-171800-
NORTH CENTRAL INDIANA

CITY           SKY/WX    TMP DP  RH WIND       PRES   REMARKS
ELKHART        PTSUNNY   64  46  52 S6        30.04F
GOSHEN         SUNNY     65  47  52 SW5       30.03F
LOGANSPORT +   PTSUNNY   64  45  48 S8        30.05F
PERU/GRISSOM   MOSUNNY   64  51  62 VRB1      30.04F
ROCHESTER +    PTSUNNY   68  46  45 W7        30.05S
SOUTH BEND     PTSUNNY   66  44  45 SW10      30.04S
WARSAW +       PTSUNNY   63  45  51 W5        30.04S

$$

INZ006>009-017-018-025>027-171800-
NORTHEAST INDIANA

CITY           SKY/WX    TMP DP  RH WIND       PRES   REMARKS
ANGOLA *+      MOSUNNY   66  46  48 W5        30.03S
AUBURN +       MOSUNNY   63  45  51 SW7       30.05S
FORT WAYNE     MOSUNNY   64  46  52 VRB3      30.05F
HUNTINGTON +   PTSUNNY   63  50  61 W5        30.04S

$$

INZ028-029-035-036-043>045-051>053-171800-
WEST CENTRAL INDIANA

CITY           SKY/WX    TMP DP  RH WIND       PRES   REMARKS
GREENCASTLE +  PTSUNNY   61  50  67 CALM      30.06F
LAFAYETTE      PTSUNNY   63  48  58 S5        30.04F
TERRE HAUTE    PTSUNNY   64  49  57 CALM      30.05F

$$

INZ030>032-037>040-046>048-054>057-064-065-171800-
CENTRAL INDIANA

CITY           SKY/WX    TMP DP  RH WIND       PRES   REMARKS
ANDERSON       PTSUNNY   64  48  55 CALM      30.07S
CP ATTERBURY + PTSUNNY   61  48  63 SE5       30.07F
COLUMBUS       PTSUNNY   59  50  72 CALM      30.06F
FRANKFORT +    PTSUNNY   64  49  57 CALM      30.06F
INDIANAPOLIS   PTSUNNY   62  47  57 SE3       30.05S
-EAGLE CREEK   CLOUDY    64  47  53 VRB3      30.05S
KOKOMO *+      SUNNY     66  46  48 CALM      30.05S
MARION +       PTSUNNY   65  45  48 SW6       30.05S
MT COMFORT *+  PTSUNNY   63  43  48 S5        30.07R
SHELBYVILLE    CLOUDY    65  49  56 S7        30.06R
ZIONSVILLE +   MOSUNNY   63  46  54 CALM      30.06S

$$

INZ033-034-041-042-049-050-058-059-171800-
EAST CENTRAL INDIANA

CITY           SKY/WX    TMP DP  RH WIND       PRES   REMARKS
MUNCIE         MOSUNNY   61  45  55 SW6       30.05S

$$

INZ060-061-067>069-081>083-085>088-171800-
SOUTHWEST INDIANA

CITY           SKY/WX    TMP DP  RH WIND       PRES   REMARKS
EVANSVILLE     PTSUNNY   65  50  58 VRB5      30.07R
WASHINGTON +   PTSUNNY   63  51  64 CALM      30.06R

$$

INZ062-063-066-070>080-084-089>092-171800-
SOUTH CENTRAL AND SOUTHEAST INDIANA

CITY           SKY/WX    TMP DP  RH WIND       PRES   REMARKS
BLOOMINGTON    PTSUNNY   62  50  64 VRB5      30.06S

$$




USA.gov is the U.S. government's official web portal to all federal, state and local government web resources and services.